GFSNIL_con_mlcape_057.txt.gz
CAPE
0 0 2 32 138 297 855 1099 1429 2983 2698 3060 3128 3254 3185 3017 2987 2652 2444 2443 2306 995
0 0 0 0 272 183 293 501 826 2798 3008 3153 3002 3133 3197 2980 2905 2455 2400 2236 2469 2101
0 0 0 11 139 263 669 601 459 1336 2354 2832 2985 3079 3194 3047 2784 2149 2020 1980 2125 2220
0 0 0 0 29 196 862 1267 1830 977 1505 2441 2826 3222 3296 2522 1869 2167 2460 2161 2616 2511
0 0 0 0 0 230 626 1170 1416 1604 1639 2020 2778 3124 2784 2193 1483 2427 2385 2480 2427 2349
0 0 0 0 0 285 415 776 1201 1372 1448 1963 2367 2438 2461 2186 1963 2274 2360 2574 2501 1992
0 0 0 0 0 163 386 615 815 1397 1541 1877 1956 1957 2262 2308 2184 2374 2497 2354 1958 1582
35 36 0 0 0 99 371 533 750 1069 1550 1904 1897 1759 2275 2302 2370 2427 2286 1941 1823 1635
70 60 35 9 1 276 645 708 908 1009 1345 1785 1594 1451 1908 2429 2416 2156 1943 1856 1586 1390
159 117 60 2 0 212 861 1165 1318 1343 1606 1851 2050 1444 1804 2011 2065 1868 1808 1674 1343 1100
193 158 78 57 12 533 1118 1583 2024 2132 2039 2367 1801 1365 1565 1444 1740 1748 1603 1365 1316 1111
176 182 127 60 138 985 1441 1923 2370 2530 2487 2467 1128 775 976 1112 1474 1246 1073 920 805 657
173 201 203 206 672 1201 1674 2079 2305 2121 2493 1936 1181 550 662 777 876 871 669 767 868 343
156 266 476 721 1192 1285 1782 1930 1962 2166 1781 1254 887 336 118 131 646 631 670 610 630 456

GFSNIL_con_mlcape_060.txt.gz
CAPE
0 0 25 9 0 83 689 654 295 148 68 2 0 0 6 227 2004 3146 3126 2669 2714 2145
1 3 0 25 9 18 479 430 445 535 146 90 126 1240 1640 2113 2879 3242 3029 2854 2304 2479
0 0 3 16 16 7 11 70 453 362 557 1884 2076 2631 3198 3429 3317 3235 2929 2664 2441 1909
0 0 0 0 6 5 80 329 389 48 1033 1418 2933 3307 2984 3409 3310 3022 2766 2461 1900 2398
0 0 0 0 0 31 40 342 527 877 729 1423 1099 2799 3005 3325 3226 3047 2545 1960 2171 2289
0 0 0 0 0 0 3 59 407 945 1217 1731 2136 2274 3052 3424 3234 2348 2189 2486 2277 2424
19 9 0 40 7 0 0 23 342 822 1229 1717 1711 2203 3056 3315 2830 1985 2587 2469 2528 2386
50 28 13 0 0 0 0 76 204 508 1057 1254 1789 2076 2773 2773 2532 2398 2490 2553 2609 2325
52 20 37 6 89 0 0 4 299 610 875 1195 1475 2032 2250 2436 2583 2583 2514 2395 2173 1512
41 97 37 37 30 77 232 95 63 902 995 1102 1787 1675 1589 2345 2522 2660 2417 2188 1858 1301
23 51 51 31 111 89 97 42 674 783 1483 1465 2036 1502 1501 2162 2426 2209 1883 1943 1725 1383
0 59 122 55 141 187 146 214 477 1246 1808 1557 1457 1215 1583 2133 1992 1777 1795 1607 1497 1085
64 122 152 153 255 200 262 526 644 1167 1849 1833 1506 995 1524 1735 1775 1575 1251 955 592 512
96 236 160 273 336 432 325 664 463 1274 1656 1801 1342 803 835 1030 1280 954 886 729 674 272

GFSNIL_con_mlcape_063.txt.gz
CAPE
0 0 0 2 0 3 60 88 173 202 60 146 77 36 11 1 2 0 0 0 0 0
0 0 0 0 0 16 15 165 535 363 398 226 33 34 6 1 0 11 12 128 410 741
0 0 0 0 0 0 0 1 0 68 266 342 352 399 138 88 108 101 31 78 1070 2334
0 0 0 0 0 0 0 2 1 1 67 88 148 564 830 437 298 649 869 1485 2367 2687
0 0 0 0 0 0 0 0 28 77 251 464 512 1029 1046 1045 1377 2041 2342 2620 2189 2133
0 0 0 0 0 0 0 0 0 2 1 46 505 979 2154 2660 2704 2677 2395 2070 1906 2122
0 0 0 0 0 0 0 0 0 0 13 115 655 898 1426 1762 2261 2815 2431 2343 2180 1999
0 0 0 61 25 5 0 0 0 0 0 45 171 936 1281 2004 2547 2687 2075 2178 2230 1791
0 0 0 0 14 1 0 0 0 0 4 55 216 540 964 1570 2155 2078 1673 2022 1925 1716
0 0 1 0 3 54 14 0 0 0 0 0 394 747 895 1122 2207 1755 1773 1792 1676 1439
0 0 0 0 4 3 6 0 0 0 19 51 60 369 840 982 1748 1700 1748 1748 1260 945
0 0 0 0 0 2 2 6 12 5 0 197 531 442 735 645 1429 1394 1478 1690 1245 886
0 8 0 0 0 3 0 11 22 1 0 291 274 773 631 427 1466 1356 1289 1292 1019 1009
0 2 18 4 25 5 12 0 19 162 73 309 323 462 410 961 1256 1167 1162 857 667 460

GFSNIL_con_mlcape_069.txt.gz
CAPE
0 0 0 0 1 6 16 119 310 462 494 549 785 974 888 675 556 578 417 328 401 380
0 0 0 0 0 0 0 0 0 39 175 237 282 381 572 701 724 682 599 474 315 183
0 0 0 0 0 0 0 0 0 0 0 0 9 57 281 398 402 325 317 183 86 25
0 0 0 0 0 0 0 0 0 0 0 0 0 15 59 95 193 122 121 109 80 15
0 0 0 0 0 0 0 0 0 0 0 0 0 0 0 108 148 143 275 258 323 212
0 0 0 0 0 0 0 0 0 0 0 0 0 0 11 44 86 153 137 154 103 507
0 0 0 0 0 0 0 0 0 0 0 0 0 0 0 0 0 13 64 412 539 907
0 0 0 0 0 0 0 0 0 0 0 0 0 0 0 0 0 4 52 118 418 620
0 0 0 0 0 0 0 0 0 0 0 0 0 0 0 0 0 0 4 26 137 604
0 0 0 0 0 0 0 0 0 0 0 0 0 0 0 0 0 0 0 14 63 112
0 0 0 0 0 0 0 0 0 0 0 0 0 0 0 0 0 0 0 1 77 146
0 0 0 0 0 0 0 0 0 0 0 0 0 0 0 0 0 0 0 0 88 417
0 0 0 0 0 0 0 0 0 0 0 0 0 0 0 0 0 0 0 34 231 400
0 0 0 0 0 0 0 0 0 0 0 0 0 0 0 0 0 0 0 43 246 348

GFSNIL_con_mlcape_072.txt.gz
CAPE
0 0 0 0 29 359 591 714 700 648 602 575 657 717 793 681 676 675 571 464 518 519
0 0 0 0 0 0 0 0 5 14 18 88 173 303 413 451 495 531 608 616 504 373
0 0 0 0 0 0 0 0 0 0 4 1 0 9 61 99 202 318 370 355 324 322
0 0 0 0 0 0 0 0 0 0 0 0 0 0 0 0 42 91 115 139 106 141
0 0 0 0 0 0 0 0 0 0 0 0 0 0 0 0 0 0 0 0 47 50
0 0 0 0 0 0 0 0 0 0 0 0 0 0 0 0 0 0 0 0 42 76
0 0 0 0 0 0 0 0 0 0 0 0 0 0 0 0 0 0 0 1 44 146
0 0 0 0 0 0 0 0 0 0 0 0 0 0 0 0 0 0 0 0 0 34
0 0 0 0 0 0 0 0 0 0 0 0 0 0 0 0 0 0 0 0 0 0
0 0 0 0 0 0 0 0 0 0 0 0 0 0 0 0 0 0 0 0 0 0
0 0 0 0 0 0 0 0 0 0 0 0 0 0 0 0 0 0 0 0 0 0
0 0 0 0 0 0 0 0 0 0 0 0 0 0 0 0 0 0 0 0 0 0
0 0 0 0 0 0 0 0 0 0 0 0 0 0 0 0 0 0 0 0 0 0
0 0 0 0 0 0 0 0 0 0 0 0 0 0 0 0 0 0 0 0 0 0

GFSNIL_con_mlcape_075.txt.gz
CAPE
2673 2458 2329 2160 1925 1873 1787 1720 1874 1669 1452 1368 1412 1438 1057 509 181 5 0 106 442 624
1528 1158 713 664 763 758 1168 1430 1454 1457 1467 1418 1474 1612 1560 1282 798 536 140 411 743 1145
266 204 139 169 138 180 233 151 226 268 328 323 528 694 1048 1035 928 737 798 1123 1061 890
38 53 29 16 10 0 0 0 0 0 61 38 27 168 237 271 321 281 407 460 271 212
38 0 0 0 0 0 0 0 0 0 0 0 1 113 50 8 29 53 47 55 153 165
0 0 0 0 0 0 0 0 0 0 0 0 0 0 16 32 27 23 21 13 51 135
0 0 0 0 0 0 0 0 0 0 0 0 0 0 0 0 0 0 0 0 19 10
0 0 0 0 0 0 0 0 0 0 2 0 0 0 0 22 23 0 0 3 7 0
0 0 0 0 0 0 0 0 9 53 27 8 0 0 0 0 0 0 0 0 0 0
0 0 0 0 0 0 19 8 0 0 0 0 0 0 0 0 0 0 0 0 0 0
0 0 0 0 0 4 19 0 0 0 0 0 0 0 0 0 0 0 0 0 0 0
0 0 0 0 0 0 0 0 0 0 0 0 0 0 0 0 0 0 0 0 0 0
0 0 0 0 0 0 0 0 0 0 0 0 0 0 0 0 0 0 0 0 0 0
0 0 0 0 0 0 0 0 0 0 0 0 0 0 0 0 0 0 0 0 0 0

GFSNIL_con_mlcape_078.txt.gz
CAPE
2393 2532 2773 3047 2659 2642 2288 2476 2813 2825 2717 2768 2736 2674 2725 2550 1908 1606 1178 730 271 155
2776 2969 2864 3029 3398 2954 2605 1911 2497 2981 2893 2744 2679 2647 2581 2307 1962 1724 1311 612 385 235
3254 3403 3232 3323 3361 2743 2336 1966 2281 2613 2673 2650 2549 2428 2302 2084 2135 1781 747 644 360 851
3120 3109 2626 2068 1484 1193 1310 1032 1012 1211 1526 1725 1856 2058 2109 1930 1801 1898 1767 1674 1385 1204
1900 1317 957 697 694 713 606 444 264 319 479 598 588 836 1025 1044 878 1074 1027 1000 634 410
792 724 697 516 423 299 146 45 0 0 0 0 0 209 169 22 19 20 3 0 0 0
612 655 593 478 405 158 42 14 22 22 0 0 0 19 26 6 0 0 0 0 0 0
296 379 567 586 400 129 39 37 21 21 0 0 0 0 0 0 0 44 18 11 0 0
8 384 243 369 374 223 106 73 40 31 8 0 0 0 0 30 59 75 5 0 0 0
0 0 167 292 196 249 262 322 215 150 124 131 27 0 0 0 0 0 0 0 0 0
0 0 0 69 262 305 409 678 668 469 316 365 170 0 0 0 0 0 0 0 0 0
0 0 0 24 102 298 545 769 894 643 548 345 80 0 0 0 0 0 0 0 0 0
0 0 0 0 48 236 540 684 662 505 291 111 33 0 0 0 0 0 0 0 0 0
3 0 0 0 0 23 165 262 372 256 90 28 9 3 0 0 0 0 0 0 0 0

GFSNIL_con_mlcape_084.txt.gz
CAPE
164 1091 1131 1748 2050 1873 1886 1793 2098 2855 2634 2613 2773 2681 2532 2455 2214 2476 1879 1755 1464 1563
289 235 1256 1686 2148 2204 2389 2219 2180 2325 2741 2722 2753 2903 2673 2474 2294 2207 2220 1933 1912 1687
381 332 376 1846 2177 2426 2344 2481 2567 2176 2365 2850 2689 2817 2669 2542 2465 2850 2722 2306 1801 1750
112 628 441 947 1697 2409 2123 2456 2580 2386 2504 2023 2646 2624 2619 2618 2839 2578 2300 2076 1762 1864
172 577 678 1143 1439 1972 2138 2178 2227 1592 1750 2108 1718 1386 1468 1853 2625 2358 2713 2362 2326 2180
203 468 504 716 1397 2109 2024 2183 1448 392 204 1 0 0 7 820 2600 2741 2927 2695 2455 2077
107 379 209 554 1284 1715 1973 1423 222 0 0 16 0 0 274 1670 2554 2396 2261 2102 1919 1676
69 139 170 270 715 1277 1039 591 213 0 0 181 0 62 937 1335 1605 1825 1843 1345 1173 1118
22 1 34 52 11 97 374 146 0 201 0 132 575 823 921 1136 1175 1189 852 579 398 32
0 1 0 0 0 44 0 358 436 598 414 589 415 527 658 777 863 843 695 472 261 0
0 0 4 5 0 0 2 148 414 414 263 418 403 306 380 747 931 756 692 473 153 0
0 0 0 13 0 0 0 23 749 866 492 554 209 49 293 606 764 781 434 185 28 2
0 0 1 18 0 0 0 0 312 1065 731 642 159 0 105 576 612 443 243 195 60 0
0 0 1 0 20 0 0 0 7 654 1061 795 171 3 14 303 342 240 174 102 145 58

GFSNIL_con_mlcape_087.txt.gz
CAPE
0 4 0 0 0 399 956 716 1267 1124 787 384 75 78 1021 1229 1666 1282 1187 1154 844 972
0 20 39 30 22 24 460 1356 1154 1203 901 554 122 154 1148 1426 1393 1772 1824 1595 1410 895
0 0 51 0 0 65 123 813 1446 1404 1513 952 910 1169 1977 1910 1529 1423 1851 1834 1761 1464
0 0 4 0 38 42 71 406 1076 1692 1682 1499 933 1008 1064 1515 1483 1460 1232 1660 1741 1717
0 0 0 0 75 19 21 188 678 1327 1643 1383 912 429 28 188 758 490 1031 1225 1582 1737
0 0 1 0 50 67 104 308 859 1123 1052 700 451 19 0 0 0 0 0 5 995 1193
0 0 0 82 160 208 64 0 245 778 477 152 23 11 35 19 44 0 0 11 63 203
0 0 0 0 136 166 16 47 212 401 113 11 0 0 5 0 0 0 0 7 286 713
0 0 0 0 0 78 1 3 268 147 87 0 0 0 0 0 18 132 306 274 651 793
0 0 0 0 0 2 0 0 53 74 208 5 0 0 0 22 272 300 395 694 411 314
7 0 0 0 0 0 0 0 0 0 5 109 143 0 0 0 114 493 441 270 144 55
6 9 1 0 0 0 0 0 0 0 0 0 20 5 0 0 215 482 234 161 43 19
0 5 9 0 0 0 0 0 0 0 12 40 51 150 20 119 605 292 229 172 30 3
3 1 11 5 0 0 0 0 0 0 0 8 29 3 114 571 464 278 177 130 17 0

GFSNIL_con_mlcape_093.txt.gz
CAPE
0 0 0 0 0 0 0 0 0 0 10 34 123 271 591 670 622 463 281 152 51 115
0 0 0 0 0 0 0 0 0 0 0 0 0 0 20 405 642 612 339 275 165 0
0 0 0 0 0 0 0 0 0 0 0 0 0 0 0 40 443 362 268 175 189 114
0 0 0 0 0 0 0 0 0 22 4 0 0 0 0 0 11 212 255 145 183 173
0 0 0 0 0 0 0 0 0 0 16 21 0 0 0 0 38 13 145 108 101 118
0 0 0 0 0 0 0 0 0 0 2 16 8 0 0 0 1 138 46 128 110 163
0 1 2 0 0 0 0 0 0 0 0 23 23 10 28 19 12 21 294 438 208 80
0 0 0 0 0 0 4 0 0 0 0 0 11 67 42 95 93 144 194 238 282 227
0 0 0 2 1 0 2 0 0 0 0 0 7 70 19 160 97 405 271 196 152 113
0 0 0 0 2 1 0 1 2 2 4 0 2 28 86 80 30 215 196 199 149 37
1 1 1 1 2 3 2 0 0 0 7 13 6 29 34 17 0 48 65 147 123 26
1 1 1 2 2 1 3 2 4 1 1 5 20 18 0 0 8 27 83 21 14 16
1 1 2 1 2 4 6 4 1 0 7 3 0 10 0 0 0 2 2 182 85 46
3 5 1 1 2 5 3 1 0 0 0 2 0 4 0 0 0 3 0 10 15 22

GFSNIL_con_mlcape_096.txt.gz
CAPE
0 0 0 0 0 0 0 0 0 0 0 0 12 33 93 99 176 310 370 406 462 439
0 0 0 0 0 0 0 0 0 0 0 0 0 4 0 18 23 76 144 325 309 412
0 0 0 0 0 0 0 0 0 0 0 0 0 0 0 0 7 7 41 70 192 139
0 0 0 0 0 0 0 0 0 0 0 0 0 0 0 0 0 0 20 63 7 52
0 0 0 0 0 0 0 0 0 0 0 0 0 0 0 0 0 0 0 11 48 57
0 0 0 0 0 0 0 0 0 0 0 0 0 0 18 19 3 0 23 41 44 61
0 0 0 0 0 0 0 0 0 0 3 5 1 0 0 28 37 16 21 60 97 70
0 0 0 0 0 0 0 0 5 2 8 6 0 0 0 1 8 21 22 73 117 139
0 0 0 0 0 0 0 0 1 0 0 0 0 0 0 0 0 8 19 73 111 157
0 1 1 1 0 0 0 0 1 9 4 6 0 0 0 0 0 0 34 74 132 162
0 0 2 7 5 1 0 1 4 2 6 0 0 0 0 0 0 0 38 52 123 317
1 1 1 4 2 1 1 0 2 4 4 3 0 0 0 0 3 11 14 43 101 197
1 1 3 5 22 12 5 2 4 2 1 2 0 0 0 3 18 55 23 16 64 32
1 1 3 4 15 21 11 4 5 2 1 0 0 0 0 1 28 34 26 44 10 38

GFSNIL_con_mlcape_102.txt.gz
CAPE
0 0 0 0 0 0 0 0 0 0 0 0 0 0 0 2 49 273 348 546 731 82
0 0 0 0 0 0 0 0 0 0 0 0 0 0 0 0 0 101 309 112 373 396
0 0 0 0 0 0 0 0 0 0 0 0 0 0 0 0 0 0 21 32 41 50
0 0 0 0 0 0 0 0 0 0 0 0 0 1 2 1 0 0 12 1 69 77
0 0 0 0 0 0 0 1 2 3 2 2 2 3 4 3 4 5 6 21 14 34
0 0 0 0 0 1 1 1 2 3 3 4 3 4 3 2 5 2 5 13 15 17
0 0 0 1 3 4 4 0 2 5 5 5 8 3 1 2 3 2 8 16 23 8
0 0 2 3 3 3 13 14 11 7 6 8 10 5 7 11 7 16 11 0 0 17
0 2 2 3 5 6 8 12 8 15 18 15 4 1 0 0 1 1 9 0 0 0
3 3 2 4 3 5 9 13 2 22 1 26 2 3 0 0 0 1 4 10 1 2
3 2 4 6 5 1 1 1 8 11 24 17 7 0 0 0 3 2 2 0 1 0
0 1 6 0 2 3 2 1 8 6 24 16 7 0 0 0 5 1 2 7 12 15
1 3 2 1 1 1 1 3 8 2 1 3 0 1 0 0 1 1 1 0 0 0
2 3 1 2 5 2 2 9 8 5 0 2 1 0 0 0 0 2 3 1 1 9

GFSNIL_con_mlcape_105.txt.gz
CAPE
0 0 0 0 0 0 0 0 0 0 0 0 0 0 0 0 0 13 137 599 888 761
0 0 0 0 0 0 0 0 0 0 0 0 0 0 0 0 0 0 0 8 198 621
0 0 0 0 0 0 0 0 0 0 0 0 0 0 1 1 0 2 2 4 1 20
0 0 0 0 0 0 0 0 0 0 0 0 0 1 4 5 5 1 4 13 2 2
0 0 0 0 0 0 0 0 2 3 3 2 2 0 1 1 3 1 3 9 1 1
0 0 0 0 1 2 3 2 2 2 1 1 0 0 1 3 0 0 3 0 0 8
0 0 0 1 3 3 4 2 6 7 9 5 3 6 9 6 7 5 7 6 19 19
0 0 1 5 2 5 4 9 10 11 6 10 1 7 8 12 14 17 4 9 11 8
0 2 4 5 2 1 0 1 10 11 13 4 0 10 1 0 12 6 4 2 8 17
1 5 5 5 5 6 11 13 11 13 15 9 3 1 7 1 2 5 3 3 13 14
3 5 3 2 6 9 6 8 14 5 1 5 7 1 2 0 0 1 0 0 5 7
0 0 1 3 2 5 5 2 0 1 5 8 1 1 0 0 0 1 1 0 9 7
0 1 1 3 8 3 9 1 3 2 5 4 1 1 0 0 3 2 1 3 0 0
0 5 5 2 0 7 0 6 0 5 4 3 0 1 0 0 0 1 1 1 1 0

GFSNIL_con_mlcape_111.txt.gz
CAPE
0 0 0 0 0 0 0 0 0 0 0 0 0 0 0 0 0 0 0 0 0 0
0 0 0 0 0 0 0 0 0 0 0 0 0 0 0 0 0 0 0 0 0 0
0 0 0 0 0 0 0 0 0 0 0 0 0 0 0 0 0 0 0 0 0 0
0 0 0 0 0 0 0 0 0 0 0 0 0 0 0 0 0 0 0 0 0 0
0 0 0 0 0 0 0 0 0 0 0 0 0 0 0 0 0 0 0 1 1 0
0 0 0 0 0 0 0 0 0 0 0 0 0 0 0 1 4 0 2 2 2 0
0 0 0 0 0 0 0 0 0 0 0 0 0 0 0 2 3 2 0 2 12 2
0 0 0 0 0 0 0 0 0 0 1 2 0 0 0 0 0 0 0 0 0 0
0 0 0 0 0 0 0 0 0 1 0 0 0 0 0 0 0 0 0 0 0 0
0 0 0 0 0 0 0 0 0 0 0 0 0 0 0 0 0 0 0 0 0 0
0 0 0 0 0 0 0 0 1 0 0 0 0 0 0 0 0 0 0 0 0 0
0 0 0 0 0 0 1 1 0 0 0 0 1 2 3 0 0 2 2 1 2 3
0 0 0 0 0 0 0 1 0 0 0 0 0 1 0 0 5 2 4 3 1 1
0 0 0 0 0 0 0 0 0 0 0 0 0 0 0 0 0 9 10 9 3 1

GFSNIL_con_mlcape_114.txt.gz
CAPE
0 0 0 0 0 0 0 0 0 0 0 0 0 0 0 0 0 0 0 0 0 0
0 0 0 0 0 0 0 0 0 0 0 0 0 0 0 0 0 0 0 0 0 0
0 0 0 0 0 0 0 0 0 0 0 0 0 0 0 0 0 0 0 0 0 0
0 0 0 0 0 0 0 0 0 0 0 0 0 0 0 0 0 0 0 0 0 0
0 0 0 0 0 0 0 0 0 0 0 0 0 0 0 0 0 0 0 1 0 0
0 0 0 0 0 0 0 0 0 0 0 0 0 0 0 0 0 0 2 0 0 0
0 0 0 0 0 0 0 0 0 0 0 0 0 0 0 0 0 0 0 0 0 0
0 0 0 0 0 0 0 0 0 0 0 0 0 0 0 0 0 0 0 0 0 0
0 0 0 0 0 0 0 0 0 0 0 0 0 0 0 0 0 0 0 0 0 0
0 0 0 0 0 0 0 0 0 0 0 0 0 0 0 0 0 0 0 1 1 0
0 0 0 0 0 0 0 0 0 0 0 0 0 0 1 0 0 0 0 0 1 2
0 0 0 0 0 0 0 0 0 0 0 0 0 0 0 0 3 1 2 2 0 1
0 0 0 0 0 0 0 0 0 0 0 0 0 0 0 0 5 5 3 0 0 0
0 0 0 0 0 0 0 0 0 0 0 0 0 0 1 3 5 6 5 1 0 1

GFSNIL_con_mlcape_117.txt.gz
CAPE
0 0 0 0 0 0 0 0 0 0 0 0 0 0 0 0 0 0 0 0 0 0
0 0 0 0 0 0 0 0 0 0 0 0 0 0 0 0 0 0 0 0 0 0
0 0 0 0 0 0 0 0 0 0 0 0 0 0 0 0 0 0 0 0 0 0
0 0 0 0 0 0 0 0 0 0 0 0 0 0 0 0 0 0 0 0 0 0
0 0 0 0 0 0 0 0 0 0 0 0 0 0 0 0 0 0 0 0 0 0
0 0 0 0 0 0 0 0 0 0 0 0 0 0 0 0 0 0 0 0 0 0
0 0 0 0 0 0 0 0 0 0 0 0 0 0 0 0 0 0 0 0 0 0
0 0 0 0 0 0 0 0 0 0 0 0 0 0 0 0 0 0 0 0 0 0
0 0 0 0 0 0 0 0 0 0 0 0 0 0 0 0 0 0 0 0 0 0
0 0 0 0 0 0 0 0 0 0 0 0 0 0 0 0 0 0 0 0 0 0
0 0 0 0 0 0 0 0 0 0 0 0 0 0 0 0 0 0 0 0 2 2
0 0 0 0 0 0 0 0 0 0 0 0 0 0 0 1 2 1 0 1 1 1
0 0 0 0 0 0 0 0 0 0 0 0 0 0 1 2 4 7 5 3 1 0
0 0 0 0 0 0 0 0 0 0 0 0 0 0 1 2 5 5 8 7 1 1